[[{"header":{"parameterUnit":"m.s-1","parameterCategory":1,"la1":30.2991,"la2":30.254,"lo1":-89.0895,"lo2":-89.0444,"dy":0.0017,"dx":0.0017,"nx":28,"ny":28,"refTime":"2025-11-11T09:00:00:Z","depth":0,"parameterNumber":2,"parameterNumberName":"U-component_of_WINDS"},"data":[0,0,0,0,0,0,0,0,0,0,0,0,0,0,0,0,0,0,0,0,0,0,0,0,0,0,0,0,0,0,0,0,0,0,0,0,0,0,0,0,0,0,0,0,0,0,0,0,0,0,0,0,0,0,0,0,0,0,2.987,2.987,0,2.9899,2.9899,2.9899,2.9888,2.9887,2.9887,2.9886,2.9912,2.9914,2.9915,0,0,0,0,0,0,0,0,0,0,0,0,0,2.9802,2.9803,2.987,2.987,2.9871,2.9899,2.9899,2.9899,2.9888,2.9887,2.9886,2.9886,2.9912,2.9913,2.9915,0,0,0,0,0,0,0,0,0,0,0,0,0,2.9831,2.9804,2.987,2.9868,2.9869,2.9899,2.9899,2.9899,2.9888,2.9887,2.9886,2.9885,2.9911,2.9913,2.9915,2.9947,0,0,2.9921,2.9922,0,0,0,0,0,0,0,0,2.9829,2.9834,2.9868,2.9869,2.9869,2.9889,2.9885,2.9915,2.9888,2.9881,2.9886,2.9885,2.9905,2.9908,2.9915,2.9949,2.995,2.9922,2.9923,2.9924,2.9924,0,0,0,0,0,0,0,2.9827,2.9832,2.9881,2.9869,2.9869,2.9865,2.9868,2.989,2.9898,2.9881,2.988,2.9884,2.9905,2.9913,2.9916,2.995,2.9921,2.9923,2.9924,2.9925,3.001,3.0011,0,0,0,0,0,0,2.9826,2.9831,2.988,2.9882,2.9846,2.9867,2.9871,2.9883,2.9898,2.9899,2.9885,2.9884,2.991,2.9913,2.9916,2.9953,2.9924,2.9925,2.9927,3.0009,3.001,3.0011,0,0,0,0,0,0,2.9824,2.983,2.9879,2.9856,2.9862,2.987,2.9884,2.9884,2.9892,2.9901,2.9902,2.9892,2.991,2.9914,2.994,2.9954,2.9926,2.9928,3.0007,3.0009,3.001,3.0029,0,0,0,0,0,0,2.9822,2.983,2.9843,2.9857,2.9863,2.9903,2.9885,2.9886,2.9896,2.9895,2.9908,2.9909,2.9909,2.9937,2.9942,2.9956,2.993,3.0006,3.0008,3.001,3.0027,3.0031,3.0034,0,0,0,0,0,2.982,2.9847,2.9844,2.985,2.988,2.9904,2.9908,2.9908,2.9898,2.991,2.9915,2.9908,2.9952,2.9939,2.9945,2.9961,3.0005,3.0008,3.001,3.0025,3.003,3.0034,0,0,0,0,0,0,2.9834,2.9849,2.9845,2.9878,2.989,2.9902,2.9918,2.9914,2.9928,2.9926,2.9925,2.9928,2.9955,2.9961,2.9946,2.9991,2.9977,2.998,2.9987,2.9991,2.9995,2.9992,2.9931,0,0,0,0,0,2.9841,2.986,2.9871,2.9899,2.9905,2.991,2.9921,2.992,2.9932,2.9937,2.9944,2.9955,2.9971,2.9982,2.9997,3.0028,3.003,3.0041,3.0045,3.0048,3.005,3.0065,3.007,3.0019,3.0019,3.0019,0,0,2.9855,2.9866,2.9878,2.9902,2.9911,2.9929,2.9915,2.9935,2.9948,2.994,2.9964,2.997,2.9982,3.001,3.0023,3.0016,3.0065,3.0051,3.0053,3.0054,3.0068,3.0073,3.0077,3.002,3.002,3.002,0,0,2.989,2.9901,2.9924,2.9933,2.9948,2.9951,2.9957,2.997,2.9973,2.9998,2.9992,3.0007,3.0035,3.0044,3.0052,3.0089,3.0083,3.0094,3.0113,3.0127,3.0131,3.0135,3.0146,3.015,3.0097,3.0097,3.0097,0,2.9906,2.9934,2.9936,2.9956,2.9966,2.9961,2.9983,2.9992,3.001,3.0017,3.0009,3.0043,3.0051,3.008,3.0089,3.0097,3.0102,3.0092,3.0131,3.0134,3.0137,3.0148,3.0153,3.0098,3.0098,3.0098,3.0098,0,2.9951,2.9971,2.9988,3.0006,3.0018,3.0039,3.0043,3.0055,3.0053,3.0057,3.0082,3.0091,3.0108,3.0115,3.0114,3.0143,3.0138,3.0131,3.0115,3.0143,3.0153,3.0158,3.01,3.01,3.0099,3.0099,0,0,2.9995,3.0014,3.002,3.0027,3.0043,3.0057,3.0078,3.0095,3.0104,3.0117,3.0132,3.0156,3.0149,3.0158,3.0158,3.0171,3.0197,3.0161,3.0162,3.0166,3.0229,3.0233,3.0238,3.0194,3.0195,3.0196,3.0227,0,3.0029,3.0066,3.0068,3.0101,3.0118,3.0112,3.013,3.0141,3.0145,3.0159,3.0163,3.0179,3.0169,3.0175,3.0187,3.0192,3.021,3.019,3.0207,3.0208,3.0202,3.0243,3.0248,3.0277,3.0231,3.0232,3.0232,0,3.0075,3.0089,3.0124,3.0135,3.0142,3.0158,3.0173,3.0187,3.0199,3.02,3.0211,3.0208,3.0227,3.0213,3.0239,3.0225,3.0232,3.0236,3.0237,3.0237,3.022,3.0243,3.0287,3.029,3.0239,3.0238,3.0238,0,3.01,3.0129,3.0152,3.0159,3.0174,3.0185,3.0192,3.0202,3.0212,3.0224,3.023,3.0245,3.0253,3.0264,3.0265,3.0254,3.029,3.0276,3.029,3.029,3.0297,3.0296,3.034,3.0305,3.0305,3.0304,3.0304,0,3.0138,3.0158,3.0164,3.0179,3.0201,3.0203,3.0225,3.023,3.024,3.0254,3.0251,3.0264,3.0265,3.0279,3.028,3.03,3.0304,3.0305,3.0304,3.0304,3.0304,3.0307,3.0305,3.0306,3.0305,3.0305,3.0305,0,3.017,3.0175,3.02,3.0212,3.0215,3.0231,3.0241,3.0254,3.0258,3.0276,3.028,3.0286,3.0301,3.0304,3.0322,3.0323,3.0346,3.0345,3.0342,3.0341,3.0355,3.0353,3.0402,3.0408,3.037,3.037,3.0371,0,3.0192,3.0208,3.0222,3.0231,3.0238,3.0254,3.0264,3.0266,3.0276,3.029,3.0301,3.0316,3.0328,3.0353,3.0358,3.0372,3.0369,3.0386,3.0371,3.037,3.0367,3.0366,3.0366,3.0388,3.0388,3.0389,3.0389,0,3.0231,3.0232,3.0247,3.0262,3.0274,3.0286,3.0297,3.0305,3.0309,3.032,3.0336,3.0345,3.0364,3.0379,3.0392,3.0397,3.0393,3.0394,3.0397,3.0396,3.0393,3.0393,3.0348,3.0392,3.0392,3.0392,3.0391,3.0391,3.0258,3.0271,3.0282,3.0298,3.0307,3.0317,3.033,3.0335,3.0349,3.0364,3.0365,3.0382,3.0392,3.0409,3.0416,3.0428,3.0423,3.0429,3.043,3.0431,3.0431,3.0393,3.0431,3.0431,3.0431,3.0431,3.0431,0,3.0294,3.0301,3.0316,3.0332,3.0344,3.0341,3.0353,3.0362,3.0378,3.0388,3.04,3.0418,3.0432,3.0438,3.0451,3.046,3.0458,3.0463,3.0462,3.0463,3.0436,3.0431,3.0465,3.0464,3.0464,3.0464,3.0464,3.0464,3.0315,3.0336,3.0339,3.0364,3.0371,3.0388,3.0395,3.0404,3.0412,3.0432,3.0444,3.0448,3.0456,3.047,3.0482,3.0484,3.0488,3.0493,3.0494,3.0468,3.0465,3.0461,3.0456,3.0495,3.0495,3.0519,3.0519,3.0519]},{"header":{"parameterUnit":"m.s-1","parameterCategory":1,"la1":30.2991,"la2":30.254,"lo1":-89.0895,"lo2":-89.0444,"dy":0.0017,"dx":0.0017,"nx":28,"ny":28,"refTime":"2025-11-11T09:00:00:Z","depth":0,"parameterNumber":3,"parameterNumberName":"V-component_of_WINDS"},"data":[0,0,0,0,0,0,0,0,0,0,0,0,0,0,0,0,0,0,0,0,0,0,0,0,0,0,0,0,0,0,0,0,0,0,0,0,0,0,0,0,0,0,0,0,0,0,0,0,0,0,0,0,0,0,0,0,0,0,2.3557,2.3555,0,2.3437,2.3435,2.3434,2.336,2.3359,2.3359,2.3359,2.3232,2.3229,2.3226,0,0,0,0,0,0,0,0,0,0,0,0,0,2.3718,2.3715,2.3557,2.3555,2.3554,2.3437,2.3435,2.3434,2.336,2.3359,2.3359,2.3359,2.3233,2.3229,2.3225,0,0,0,0,0,0,0,0,0,0,0,0,0,2.3628,2.3715,2.3557,2.3503,2.3497,2.3437,2.3435,2.3433,2.336,2.3359,2.3359,2.3358,2.3234,2.3229,2.3225,2.3208,0,0,2.3211,2.3209,0,0,0,0,0,0,0,0,2.3633,2.3622,2.3512,2.3507,2.35,2.3413,2.3445,2.3358,2.336,2.3412,2.3359,2.3358,2.3292,2.3283,2.3261,2.3202,2.3197,2.3211,2.3208,2.3206,2.3205,0,0,0,0,0,0,0,2.364,2.3627,2.3509,2.3511,2.3503,2.3483,2.347,2.3428,2.3356,2.3407,2.3402,2.3389,2.3288,2.3266,2.3258,2.3195,2.3211,2.3207,2.3204,2.3202,2.3115,2.3116,0,0,0,0,0,0,2.3655,2.3633,2.3513,2.3505,2.3567,2.3481,2.3466,2.3441,2.3357,2.3343,2.3389,2.3386,2.3274,2.3263,2.3253,2.3227,2.3206,2.3202,2.3199,2.3115,2.3115,2.3116,0,0,0,0,0,0,2.3659,2.3645,2.3518,2.3567,2.355,2.3479,2.3452,2.3439,2.3416,2.3343,2.333,2.338,2.3273,2.3259,2.322,2.3222,2.32,2.3195,2.3114,2.3115,2.3116,2.3176,0,0,0,0,0,0,2.3664,2.3647,2.3641,2.3568,2.3547,2.3488,2.3452,2.3437,2.3409,2.3403,2.3331,2.3318,2.3272,2.3227,2.3216,2.3215,2.3192,2.3114,2.3115,2.3115,2.3173,2.3179,2.3183,0,0,0,0,0,2.367,2.3662,2.3641,2.3627,2.3538,2.3488,2.3476,2.3425,2.341,2.3402,2.3355,2.332,2.3224,2.3224,2.321,2.3208,2.3113,2.3114,2.3115,2.3171,2.3178,2.3183,0,0,0,0,0,0,2.3734,2.3651,2.3627,2.3595,2.355,2.3476,2.3465,2.3433,2.3389,2.3385,2.3322,2.3306,2.3272,2.3236,2.3238,2.3187,2.3164,2.3163,2.3212,2.3217,2.3222,2.3231,2.3188,0,0,0,0,0,2.3746,2.3713,2.3641,2.362,2.3599,2.3536,2.3512,2.3477,2.3426,2.3406,2.3356,2.3307,2.3266,2.324,2.3197,2.3168,2.3151,2.316,2.3165,2.3169,2.3168,2.3149,2.3152,2.3119,2.3119,2.3119,0,0,2.3767,2.3718,2.3701,2.3632,2.3593,2.3559,2.352,2.3487,2.3461,2.34,2.336,2.3322,2.3263,2.3229,2.3211,2.3198,2.3174,2.3171,2.3175,2.3171,2.315,2.3154,2.3156,2.312,2.3119,2.3119,0,0,2.3789,2.3749,2.3727,2.3689,2.363,2.3588,2.3583,2.3514,2.3487,2.3446,2.34,2.3368,2.3298,2.3258,2.3229,2.3237,2.3202,2.3225,2.3249,2.3231,2.3234,2.3236,2.3237,2.3239,2.3224,2.3224,2.3224,0,2.3823,2.3772,2.3719,2.3688,2.3659,2.3605,2.3581,2.3546,2.3476,2.3456,2.3443,2.3354,2.3311,2.3266,2.3268,2.3247,2.3237,2.3232,2.3238,2.3239,2.324,2.3241,2.3242,2.3227,2.3227,2.3226,2.3226,0,2.3816,2.3782,2.3771,2.3706,2.3676,2.3649,2.359,2.3566,2.3533,2.3493,2.3451,2.3398,2.3343,2.333,2.3297,2.3281,2.3274,2.325,2.3226,2.3247,2.3247,2.3247,2.3231,2.323,2.3229,2.3229,0,0,2.3874,2.3782,2.3779,2.3748,2.368,2.3651,2.3622,2.357,2.355,2.3504,2.3476,2.3419,2.3397,2.3363,2.3325,2.331,2.3319,2.3287,2.3285,2.3294,2.3296,2.3313,2.3314,2.3296,2.3296,2.3296,2.33,0,2.3885,2.3831,2.3782,2.3744,2.3711,2.366,2.3633,2.3588,2.355,2.3515,2.3472,2.3432,2.3406,2.3386,2.3368,2.3321,2.3318,2.332,2.3268,2.3267,2.3283,2.3314,2.3333,2.3339,2.33,2.33,2.33,0,2.389,2.3848,2.3808,2.3742,2.3727,2.3704,2.3653,2.3621,2.3568,2.3541,2.3505,2.3465,2.343,2.3411,2.3361,2.3364,2.334,2.3313,2.3312,2.3304,2.3284,2.3306,2.334,2.3341,2.3299,2.3299,2.3299,0,2.3936,2.3868,2.3835,2.3811,2.3735,2.372,2.3687,2.3634,2.3606,2.3561,2.3542,2.3493,2.3466,2.3429,2.3377,2.3368,2.3332,2.3308,2.3307,2.3308,2.33,2.3301,2.333,2.3287,2.3287,2.3287,2.3287,0,2.3952,2.3929,2.3854,2.3834,2.3806,2.3751,2.3724,2.3687,2.364,2.361,2.3563,2.3535,2.3469,2.3434,2.3393,2.3357,2.3345,2.3321,2.331,2.3324,2.3327,2.3307,2.3304,2.3288,2.3288,2.3287,2.3287,0,2.3997,2.3947,2.3907,2.3838,2.3821,2.3803,2.3744,2.3721,2.3681,2.3644,2.3632,2.3568,2.3524,2.3469,2.3406,2.3379,2.3347,2.3331,2.3365,2.3358,2.336,2.336,2.3375,2.3373,2.3334,2.3334,2.3335,0,2.401,2.3991,2.3922,2.3899,2.3868,2.3832,2.3804,2.3749,2.3721,2.366,2.3645,2.3597,2.3556,2.3488,2.3435,2.3387,2.3368,2.3377,2.3361,2.3376,2.3367,2.3368,2.3365,2.3381,2.3381,2.3382,2.3383,0,2.4039,2.4015,2.3977,2.393,2.3898,2.3858,2.3816,2.38,2.3736,2.3707,2.3662,2.3631,2.3568,2.3521,2.3466,2.3431,2.3395,2.3389,2.3385,2.3399,2.3419,2.3407,2.3375,2.3388,2.3387,2.3387,2.3387,2.3386,2.4067,2.4048,2.3996,2.3955,2.3918,2.388,2.3855,2.3813,2.3775,2.372,2.369,2.3646,2.3593,2.3516,2.3482,2.3446,2.3433,2.3429,2.3427,2.3427,2.3431,2.3427,2.3436,2.3435,2.3435,2.3435,2.3435,0,2.4091,2.4056,2.4019,2.3963,2.393,2.3902,2.3854,2.3829,2.3791,2.3745,2.3707,2.3655,2.3609,2.3553,2.3503,2.3485,2.3467,2.3474,2.3473,2.3466,2.3446,2.3453,2.3489,2.3489,2.3489,2.3489,2.3489,2.3489,2.41,2.4066,2.4036,2.3983,2.3947,2.3905,2.388,2.3844,2.3807,2.3752,2.3714,2.3679,2.3629,2.3575,2.3532,2.3516,2.3499,2.351,2.349,2.3472,2.3467,2.3463,2.3469,2.3508,2.3508,2.3513,2.3513,2.3513]}]]